Content
SEND FEEDBACK

Daily
Averages
Monthly
Summary
United States of America

SAC CITY, IOWA


Home > North America > United States > Iowa
Elevation: 1270 feet     Latitude: 42 25N     Longitude: 095 00W

WEATHER
 
SELECT A DAY
Number of Records: 404,996;   Date Range: 4/23/95 - 8/12/14
 
SHARE

PRINT THIS DATA

[ ← Previous Day ]
WEATHER ALMANAC - FEBRUARY 5, 2013
[ Next Day → ]
[ °C ]   °F
Weather ElementAverageHighLow
Temperature30.7 °F42.8 °F (1:55 pm)23 °F (12:55 am)
Dewpoint25.7 °F30.2 °F (9:35 am)21.2 °F (12:35 am)
Humidity83.1 %100 % (2:55 am)56 % (3:35 pm)
Barometer29.88 in30.05 in (10:15 pm)29.72 in (4:15 am)
Wind Speed13.8 mph21.9 mph (10:35 am)
Wind Gust28.8 mph (11:55 am)
Weather ElementAverage
Visibility8.7 mi
Wind DirectionWSW (255.6 °)

Weather ElementTotal
Precipitation---
Heating Degree Days32.1 (Base 65)
Averaged from 71 records on February 5, 2013
WEATHER CONDITIONS BREAKOUT
WIND DIRECTION BREAKOUT
WEATHER BY HOUR - FEBRUARY 5, 2013
[ °C ]   °F
Local TimeTemperatureDewpointHumidityBarometerVisibilityWind DirectionWind SpeedGust SpeedPrecipitationEventsConditions
12:35 AM24.8 °F21.2 °F86 %29.79 in10.0 miSW (220°)16.1 mphOvercast
12:55 AM23.0 °F21.2 °F93 %29.77 in9.0 miSW (220°)19.6 mphOvercast
1:15 AM23.0 °F21.2 °F93 %29.76 in7.0 miSW (220°)18.4 mphOvercast
1:35 AM23.0 °F21.2 °F93 %29.75 in6.0 miSW (220°)16.1 mphMostly Cloudy
1:55 AM23.0 °F21.2 °F93 %29.75 in5.0 miSW (220°)19.6 mphClear
2:15 AM23.0 °F21.2 °F93 %29.75 in5.0 miSW (220°)18.4 mphClear
2:35 AM23.0 °F21.2 °F93 %29.74 in4.0 miSSW (210°)15.0 mphMostly Cloudy
2:55 AM23.0 °F23.0 °F100 %29.74 in5.0 miSW (220°)13.8 mphOvercast
3:15 AM23.0 °F23.0 °F100 %29.74 in5.0 miSW (230°)16.1 mphScattered Clouds
3:35 AM23.0 °F23.0 °F100 %29.73 in4.0 miWSW (240°)16.1 mphPartly Cloudy
3:55 AM23.0 °F23.0 °F100 %29.73 in4.0 miWSW (240°)18.4 mphMostly Cloudy
4:15 AM23.0 °F23.0 °F100 %29.72 in4.0 miWSW (240°)18.4 mphScattered Clouds
4:35 AM23.0 °F23.0 °F100 %29.72 in4.0 miWSW (240°)19.6 mphPartly Cloudy
4:55 AM24.8 °F23.0 °F93 %29.72 in4.0 miWSW (240°)17.3 mphScattered Clouds
5:15 AM24.8 °F23.0 °F93 %29.72 in5.0 miWSW (250°)16.1 mphMostly Cloudy
5:35 AM24.8 °F23.0 °F93 %29.73 in6.0 miWSW (250°)16.1 mphMostly Cloudy
5:55 AM24.8 °F24.8 °F100 %29.73 in7.0 miWSW (250°)13.8 mphOvercast
6:15 AM26.6 °F24.8 °F93 %29.72 in8.0 miWSW (250°)12.7 mphMostly Cloudy
6:35 AM26.6 °F24.8 °F93 %29.73 in10.0 miWest (260°)15.0 mphClear
6:55 AM26.6 °F24.8 °F93 %29.73 in10.0 miWest (260°)13.8 mphClear
7:15 AM26.6 °F23.0 °F86 %29.74 in10.0 miWest (270°)15.0 mphClear
7:35 AM26.6 °F24.8 °F93 %29.75 in9.0 miWest (270°)15.0 mphMostly Cloudy
7:55 AM24.8 °F23.0 °F93 %29.76 in9.0 miWest (270°)13.8 mphPartly Cloudy
8:15 AM26.6 °F24.8 °F93 %29.78 in10.0 miWest (280°)13.8 mphClear
8:35 AM28.4 °F24.8 °F86 %29.79 in10.0 miWest (280°)13.8 mphClear
8:55 AM32.0 °F28.4 °F87 %29.80 in10.0 miWest (280°)12.7 mphClear
9:15 AM33.8 °F28.4 °F81 %29.82 in10.0 miWNW (300°)16.1 mphClear
9:35 AM35.6 °F30.2 °F81 %29.82 in10.0 miNW (310°)17.3 mph26.5 mphClear
9:55 AM35.6 °F30.2 °F81 %29.84 in10.0 miNW (320°)17.3 mph24.2 mphClear
10:15 AM37.4 °F30.2 °F75 %29.84 in10.0 miNW (320°)16.1 mph23.0 mphClear
10:35 AM37.4 °F30.2 °F75 %29.86 in10.0 miNW (310°)21.9 mphClear
10:55 AM37.4 °F30.2 °F75 %29.87 in10.0 miNW (320°)19.6 mph27.6 mphClear
11:15 AM39.2 °F30.2 °F70 %29.88 in10.0 miNW (320°)20.7 mphClear
11:35 AM39.2 °F30.2 °F70 %29.89 in10.0 miNW (320°)18.4 mph24.2 mphClear
11:55 AM41.0 °F30.2 °F65 %29.89 in10.0 miNW (320°)20.7 mph28.8 mphPartly Cloudy
12:15 PM41.0 °F30.2 °F65 %29.90 in10.0 miNNW (330°)20.7 mph26.5 mphMostly Cloudy
12:35 PM39.2 °F30.2 °F70 %29.91 in10.0 miNNW (330°)20.7 mph26.5 mphOvercast
12:55 PM39.2 °F30.2 °F70 %29.92 in10.0 miNW (320°)20.7 mphMostly Cloudy
1:15 PM39.2 °F28.4 °F65 %29.92 in10.0 miNNW (340°)17.3 mph25.3 mphScattered Clouds
1:35 PM41.0 °F28.4 °F61 %29.92 in10.0 miNNW (330°)18.4 mphMostly Cloudy
1:55 PM42.8 °F28.4 °F57 %29.93 in10.0 miNW (320°)15.0 mph20.7 mphMostly Cloudy
2:15 PM42.8 °F28.4 °F57 %29.93 in10.0 miNW (310°)18.4 mph25.3 mphMostly Cloudy
2:35 PM39.2 °F26.6 °F61 %29.93 in10.0 miNW (320°)20.7 mphMostly Cloudy
2:55 PM39.2 °F26.6 °F61 %29.94 in10.0 miNW (320°)17.3 mph23.0 mphPartly Cloudy
3:15 PM41.0 °F26.6 °F57 %29.94 in10.0 miNW (320°)13.8 mphScattered Clouds
3:35 PM39.2 °F24.8 °F56 %29.95 in10.0 miNW (310°)18.4 mph24.2 mphMostly Cloudy
3:55 PM39.2 °F26.6 °F61 %29.95 in10.0 miNW (320°)16.1 mph23.0 mphScattered Clouds
4:15 PM37.4 °F26.6 °F65 %29.95 in10.0 miNW (320°)16.1 mphScattered Clouds
4:35 PM39.2 °F28.4 °F65 %29.96 in10.0 miNNW (330°)16.1 mphMostly Cloudy
4:55 PM37.4 °F26.6 °F65 %29.97 in10.0 miNNW (330°)13.8 mph19.6 mphScattered Clouds
5:15 PM35.6 °F28.4 °F75 %29.97 in10.0 miNNW (340°)11.5 mph19.6 mphClear
5:35 PM33.8 °F26.6 °F75 %29.98 in10.0 miNorth (350°)13.8 mphClear
5:55 PM32.0 °F26.6 °F80 %29.98 in10.0 miNorth (350°)10.4 mphClear
6:15 PM30.2 °F26.6 °F86 %30.00 in10.0 miNNW (330°)9.2 mphPartly Cloudy
6:35 PM30.2 °F24.8 °F80 %30.00 in10.0 miNNW (330°)9.2 mphPartly Cloudy
6:55 PM28.4 °F24.8 °F86 %30.01 in10.0 miNNW (340°)8.1 mphClear
7:15 PM28.4 °F24.8 °F86 %30.01 in10.0 miNorth (350°)10.4 mphClear
7:35 PM30.2 °F26.6 °F86 %30.02 in10.0 miNNW (330°)9.2 mphClear
7:55 PM28.4 °F24.8 °F86 %30.02 in10.0 miNorth (350°)6.9 mphClear
8:15 PM26.6 °F24.8 °F93 %30.02 in10.0 miNorth (360°)6.9 mphClear
8:35 PM28.4 °F24.8 °F86 %30.03 in10.0 miNorth (360°)5.8 mphClear
8:55 PM26.6 °F24.8 °F93 %30.03 in10.0 miNorth (10°)3.5 mphClear
9:15 PM28.4 °F26.6 °F93 %30.04 in10.0 miCalmClear
9:35 PM28.4 °F26.6 °F93 %30.04 in10.0 miCalmClear
9:55 PM26.6 °F24.8 °F93 %30.04 in8.0 miNE (40°)3.5 mphClear
10:15 PM28.4 °F24.8 °F86 %30.05 in10.0 miCalmClear
10:35 PM28.4 °F26.6 °F93 %30.05 in9.0 miNE (40°)4.6 mphClear
10:55 PM26.6 °F24.8 °F93 %30.05 in10.0 miNNE (30°)5.8 mphClear
11:15 PM26.6 °F24.8 °F93 %30.04 in8.0 miNE (40°)5.8 mphClear
11:35 PM24.8 °F24.8 °F100 %30.04 in7.0 miENE (60°)3.5 mphClear
11:55 PM23.0 °F21.2 °F93 %30.04 in5.0 miEast (100°)6.9 mphClear
Hourly data recorded from KSLB, located miles away from Sac City, Iowa







STORIES FROM OUR PARTNERS